User: anonymous   Login
Location: Rehoboth Beach
(38.7438°N, 75.1341°W)
Time: 09:26:01
(UTC-04:00)
Language:

Cosmos 1452 Rocket - Orbit

View from above orbital plane
View from above orbital plane
View from above satellite
View from above satellite

Ground track
Ground track

The orbit data is extracted from the following two-line orbital elements,

1 13992U 83031B   14298.15116130  .00000418  00000-0  15343-3 0  5450
2 13992 074.0537 338.6810 0005337 214.5338 203.2097 14.35796329650143
Epoch (UTC): 25 October 2014 03:37:40
Eccentricity: 0.0005337
inclination: 74.0537°
perigee height: 768 km
apogee height: 776 km
right ascension of ascending node: 338.6810°
argument of perigee: 214.5338°
revolutions per day: 14.35796329
mean anomaly at epoch: 203.2097°
orbit number at epoch: 65014

The dashed part of the orbit path shows where the satellite is in the earth's shadow,  

DLR